Home   Weather   King   Past weeks
Flag for USA

Past Weather in King, North Carolina, USA — Yesterday and Last 2 Weeks

Now
82 °F

Clear.


Feels Like: 87 °F
Forecast: 92 / 71 °F
Wind: No wind

Location: Smith Reynolds Airport

Current Time: Jul 16, 2019 at 10:56:40 pm

Latest Report: Jul 16, 2019 at 9:54 pm


Visibility: 10 mi

Pressure: 30.07 "Hg

Humidity: 72%

Dew Point: 72 °F

Location of KingLocation

Past Weather in King — Graph

°F

King Temperature Yesterday

Maximum temperature yesterday: 91 °F (at 2:54 pm)
Minimum temperature yesterday: 73 °F (at 5:54 am)
Average temperature yesterday: 82 °F

High & Low Weather Summary for the Past Weeks

 TemperatureHumidityPressure
High93 °F (Jul 16, 2:54 pm)97% (Jul 11, 5:54 am)30.18 "Hg (Jul 11, 5:54 am)
Low70 °F (Jul 2, 5:54 am)37% (Jul 14, 4:54 pm)29.83 "Hg (Jul 8, 3:54 pm)
Average80 °F73%30.00 "Hg
* Reported Jul 1 9:54 pm — Jul 16 9:54 pm, King. Weather by CustomWeather, © 2019

Note: Actual official high and low records may vary slightly from our data, if they occured in-between our weather recording intervals... More about our weather records

Advertising

King Weather History for the Previous 24 Hours

Scroll right to see more
 ConditionsComfort  
Time TempWeatherWind HumidityBarometerVisibility
9:54 pm
Tue, Jul 16
82 °FClear.No wind72%30.07 "Hg10 mi
8:54 pm85 °FClear.No wind65%30.04 "Hg10 mi
7:54 pm88 °FSunny.3 mph54%30.03 "Hg10 mi
6:54 pm92 °FPassing clouds.6 mph43%30.04 "Hg10 mi
5:54 pm91 °FSunny.5 mph44%30.04 "Hg10 mi
4:54 pm93 °FSunny.6 mph42%30.04 "Hg10 mi
3:54 pm93 °FScattered clouds.N/A44%30.07 "Hg10 mi
2:54 pm93 °FPassing clouds.7 mph44%30.09 "Hg10 mi
1:54 pm91 °FPassing clouds.7 mph45%30.10 "Hg10 mi
12:54 pm90 °FPassing clouds.5 mph48%30.11 "Hg10 mi
11:54 am89 °FSunny.3 mph57%30.13 "Hg10 mi
10:54 am86 °FSunny.No wind61%30.13 "Hg10 mi
9:54 am82 °FSunny.No wind72%30.13 "Hg10 mi
8:54 am80 °FSunny.No wind79%30.13 "Hg10 mi
7:54 am78 °FSunny.No wind82%30.12 "Hg10 mi
6:54 am76 °FSunny.No wind88%30.11 "Hg10 mi
5:54 am75 °FClear.No wind90%30.09 "Hg10 mi
4:54 am75 °FClear.No wind88%30.08 "Hg10 mi
3:54 am76 °FClear.5 mph85%30.07 "Hg10 mi
2:54 am77 °FClear.No wind79%30.08 "Hg10 mi
1:54 am76 °FClear.No wind85%30.09 "Hg10 mi
12:54 am79 °FClear.5 mph74%30.09 "Hg10 mi
11:54 pm
Mon, Jul 15
77 °FClear.No wind85%30.09 "Hg10 mi
10:54 pm75 °FClear.No wind94%30.09 "Hg10 mi
Weather by CustomWeather, © 2019

See weather overview